Content
SEND FEEDBACK

Daily
Averages
Monthly
Summary
Spain

OVIEDO, SPAIN


Home > Europe > Spain
Elevation: 1112 feet     Latitude: 43 21N     Longitude: 005 52W

WEATHER
 
SELECT A DAY
Number of Records: 197,358;   Date Range: 7/1/96 - 10/20/14
 
SHARE

PRINT THIS DATA

[ ← Previous Day ]
WEATHER ALMANAC - FEBRUARY 5, 2013
[ Next Day → ]
[ °C ]   °F
Weather ElementAverageHighLow
Temperature49.6 °F55.4 °F (1:00 pm)44.6 °F (10:58 pm)
Dewpoint43.4 °F48.2 °F (6:30 am)37.4 °F (7:00 pm)
Humidity80 %94 % (6:30 am)62 % (5:00 pm)
Barometer30.29 in30.39 in (7:30 am)30.21 in (10:00 pm)
Wind Speed19 mph29.9 mph (5:30 pm)
Wind Gust46 mph (5:00 pm)
Weather ElementAverage
Visibility4.5 mi
Wind DirectionWNW (287.4 °)

Weather ElementTotal
Precipitation---
Heating Degree Days15 (Base 65)
Averaged from 38 records on February 5, 2013
WEATHER CONDITIONS BREAKOUT
WIND DIRECTION BREAKOUT
WEATHER BY HOUR - FEBRUARY 5, 2013
[ °C ]   °F
Local TimeTemperatureDewpointHumidityBarometerVisibilityWind DirectionWind SpeedGust SpeedPrecipitationEventsConditions
6:30 AM50.0 °F48.2 °F94 %30.36 in4.3 miWest (280°)8.1 mphLight Drizzle
7:00 AM50.0 °F48.2 °F94 %30.36 in4.3 miWest (260°)6.9 mphLight Drizzle
7:30 AM50.0 °F48.2 °F94 %30.39 in1.2 miWNW (290°)12.7 mphRainRain
8:00 AM50.0 °F48.2 °F94 %30.39 in1.2 miWest (270°)10.4 mphDrizzle
8:30 AM50.0 °F48.2 °F94 %30.39 in4.3 miWest (270°)12.7 mphMostly Cloudy
9:00 AM50.0 °F48.2 °F94 %30.39 in5.0 miWest (280°)13.8 mphMostly Cloudy
9:30 AM50.0 °F46.4 °F87 %30.39 in5.0 miWest (270°)15.0 mphMostly Cloudy
10:00 AM50.0 °F46.4 °F87 %30.39 in5.6 miWest (270°)12.7 mphScattered Clouds
10:30 AM50.0 °F44.6 °F82 %30.39 in6.2 miWest (260°)13.8 mphPartly Cloudy
11:00 AM51.8 °F44.6 °F76 %30.36 in6.2 miWest (260°)13.8 mphPartly Cloudy
12:30 PM53.6 °F44.6 °F72 %30.36 in6.2 miWest (280°)17.3 mphPartly Cloudy
1:00 PM55.4 °F44.6 °F67 %30.33 in6.2 miWNW (300°)15.0 mphPartly Cloudy
1:30 PM53.6 °F44.6 °F72 %30.33 inWNW (300°)19.6 mph32.2 mphClear
2:00 PM53.6 °F44.6 °F72 %30.33 in6.2 miWNW (300°)21.9 mph33.4 mphPartly Cloudy
2:30 PM53.6 °F44.6 °F72 %30.30 in6.2 miWNW (290°)25.3 mphScattered Clouds
3:00 PM51.8 °F42.8 °F71 %30.30 in6.2 miWNW (290°)27.6 mph41.4 mphMostly Cloudy
3:30 PM53.6 °F44.6 °F72 %30.27 in6.2 miWNW (290°)28.8 mph40.3 mphScattered Clouds
4:30 PM53.6 °F42.8 °F67 %30.27 in6.2 miWNW (290°)25.3 mph36.8 mphScattered Clouds
5:00 PM53.6 °F41.0 °F62 %30.27 in6.2 miWNW (290°)28.8 mph46.0 mphScattered Clouds
5:30 PM50.0 °F41.0 °F71 %30.30 in3.7 miWNW (300°)29.9 mph44.9 mphHeavy Drizzle
6:00 PM50.0 °F39.2 °F66 %30.27 in6.2 miWest (270°)21.9 mph34.5 mphScattered Clouds
6:30 PM50.0 °F41.0 °F71 %30.24 in6.2 miWest (260°)21.9 mph33.4 mphScattered Clouds
7:00 PM50.0 °F37.4 °F62 %30.24 in6.2 miWest (270°)18.4 mphMostly Cloudy
7:30 PM50.0 °F37.4 °F62 %30.24 in5.0 miWest (270°)21.9 mph33.4 mphLight Drizzle
7:47 PM46.4 °F41.0 °F81 %30.24 in2.5 miNW (310°)21.9 mph36.8 mphRainRain Showers
8:00 PM46.4 °F42.8 °F87 %30.24 in3.1 miWNW (290°)25.3 mph39.1 mphRainRain Showers
8:18 PM46.4 °F44.6 °F93 %30.24 in1.9 miWNW (290°)20.7 mphRainRain Showers
8:30 PM46.4 °F44.6 °F93 %30.24 in1.9 miWNW (300°)18.4 mphRainRain Showers
8:47 PM46.4 °F44.6 °F93 %30.24 in3.7 miWNW (290°)20.7 mph36.8 mphRainLight Rain Showers
9:00 PM46.4 °F42.8 °F87 %30.24 in4.3 miNW (310°)19.6 mph41.4 mphRainLight Rain Showers
9:02 PM46.4 °F44.6 °F93 %30.24 in2.5 miNW (320°)18.4 mph41.4 mphRainRain Showers
9:30 PM46.4 °F41.0 °F81 %30.24 in5.6 miWNW (300°)19.6 mphLight Drizzle
10:00 PM48.2 °F39.2 °F71 %30.21 in5.0 miWNW (300°)20.7 mph38.0 mphDrizzle
10:30 PM46.4 °F41.0 °F81 %30.21 in5.0 miWNW (300°)23.0 mph36.8 mphLight Drizzle
10:58 PM44.6 °F41.0 °F87 %30.21 in1.2 miWNW (290°)18.4 mph39.1 mphRainSmall Hail Showers
11:00 PM46.4 °F41.0 °F81 %30.21 in1.9 miWNW (300°)16.1 mphSmall Hail Showers
11:20 PM48.2 °F41.0 °F76 %30.21 in5.0 miWNW (300°)18.4 mphRainLight Rain
11:30 PM44.6 °F39.2 °F81 %30.21 in2.5 miNW (310°)18.4 mph32.2 mphRainRain
Hourly data recorded from LEAS, located miles away from Oviedo, Spain







STORIES FROM OUR PARTNERS